Change the Weather History Date:

Tuesday, December 11, 2012

  Actual Average (KGDV) Record (KGDV)
Temperature  
Mean Temperature 22 °F -  
Max Temperature 33 °F 33 °F 62 °F (2004)
Min Temperature 12 °F 13 °F -16 °F (2000)
Degree Days  
Heating Degree Days 42    
Moisture  
Dew Point 20 °F    
Average Humidity 79    
Maximum Humidity 100    
Minimum Humidity 64    
Precipitation  
Precipitation 0.00 in - - ()
Sea Level Pressure  
Sea Level Pressure 29.63 in    
Wind  
Wind Speed 9 mph (SSW)    
Max Wind Speed 15 mph    
Max Gust Speed -    
Visibility 10 miles    
Events Rain    
Averages and records for this station are not official NWS values.
T = Trace of Precipitation, MM = Missing Value Source: NWS Daily Summary

Daily Weather History Graph

Daily Weather History Graph

Search for Another Location

Airport or City:

Trip Planner

Search our weather history database for the weather conditions in past years. The results will help you decide how hot, cold, wet, or windy it might be!

Date:

Astronomy

Dec. 11, 2012 Rise Set
Actual Time 7:31 AM MST 4:07 PM MST
Civil Twilight 6:56 AM MST 4:42 PM MST
Nautical Twilight 6:17 AM MST 5:20 PM MST
Astronomical Twilight 5:41 AM MST 5:57 PM MST
Moon 5:26 AM MST (12/11) 2:51 PM MST (12/11)
Length of Visible Light 9h 45m
Length of Day
8h 35m
Waning Crescent, 4% of the Moon is Illuminated
Dec 11
Waning Crescent
Dec 13
New
Dec 19
First Quarter
Dec 28
Full
Jan 4
Last Quarter

Hourly Weather History & Observations

Time (MST) Temp. Windchill Dew Point Humidity Pressure Visibility Wind Dir Wind Speed Gust Speed Precip Events Conditions
12:15 AM 24.8 °F 14.0 °F 19.4 °F 80% 29.78 in 10.0 mi West 11.5 mph - N/A   Overcast
12:35 AM 23.0 °F 13.1 °F 19.4 °F 86% 29.78 in 10.0 mi West 9.2 mph - N/A   Overcast
12:55 AM 23.0 °F 11.7 °F 19.4 °F 86% 29.77 in 10.0 mi West 11.5 mph - N/A   Overcast
1:15 AM 23.0 °F 11.1 °F 19.4 °F 86% 29.77 in 10.0 mi West 12.7 mph - N/A   Overcast
1:35 AM 23.0 °F 11.7 °F 19.4 °F 86% 29.77 in 10.0 mi West 11.5 mph - N/A   Overcast
1:55 AM 21.2 °F 10.1 °F 17.6 °F 86% 29.78 in 10.0 mi West 10.4 mph - N/A   Overcast
2:15 AM 19.4 °F 10.4 °F 17.6 °F 93% 29.78 in 10.0 mi West 6.9 mph - N/A   Overcast
2:35 AM 19.4 °F 10.4 °F 17.6 °F 93% 29.77 in 10.0 mi West 6.9 mph - N/A   Overcast
2:55 AM 19.4 °F 7.9 °F 17.6 °F 93% 29.77 in 10.0 mi WSW 10.4 mph - N/A   Overcast
3:15 AM 19.4 °F 8.6 °F 15.8 °F 86% 29.77 in 10.0 mi WSW 9.2 mph - N/A   Overcast
3:35 AM 19.4 °F 9.5 °F 17.6 °F 93% 29.77 in 10.0 mi West 8.1 mph - N/A   Overcast
3:55 AM 21.2 °F 10.1 °F 17.6 °F 86% 29.76 in 10.0 mi WSW 10.4 mph - N/A   Overcast
4:15 AM 21.2 °F 9.5 °F 17.6 °F 86% 29.76 in 10.0 mi West 11.5 mph - N/A   Overcast
4:35 AM 21.2 °F 9.5 °F 17.6 °F 86% 29.76 in 10.0 mi WSW 11.5 mph - N/A   Overcast
5:15 AM 15.8 °F 6.1 °F 14.0 °F 93% 29.75 in 10.0 mi West 6.9 mph - N/A   Scattered Clouds
5:35 AM 14.0 °F 5.1 °F 14.0 °F 100% 29.74 in 10.0 mi West 5.8 mph - N/A   Scattered Clouds
5:55 AM 15.8 °F 8.6 °F 14.0 °F 93% 29.74 in 10.0 mi WSW 4.6 mph - N/A   Mostly Cloudy
6:15 AM 15.8 °F - 14.0 °F 93% 29.74 in 10.0 mi Calm Calm - N/A   Overcast
6:35 AM 15.8 °F 8.6 °F 14.0 °F 93% 29.74 in 10.0 mi SW 4.6 mph - N/A   Overcast
7:15 AM 17.6 °F - 15.8 °F 93% 29.73 in 10.0 mi Calm Calm - N/A   Overcast
7:35 AM 14.0 °F 6.5 °F 12.2 °F 93% 29.72 in 10.0 mi South 4.6 mph - N/A   Overcast
7:55 AM 14.0 °F 8.2 °F 10.4 °F 86% 29.72 in 10.0 mi SSE 3.5 mph - N/A   Partly Cloudy
8:15 AM 12.2 °F 6.1 °F 10.4 °F 92% 29.71 in 10.0 mi SSE 3.5 mph - N/A   Clear
8:35 AM 14.0 °F - 12.2 °F 93% 29.71 in 10.0 mi Calm Calm - N/A   Clear
8:55 AM 15.8 °F 10.2 °F 14.0 °F 93% 29.71 in 10.0 mi ESE 3.5 mph - N/A   Clear
9:15 AM 19.4 °F 12.8 °F 14.0 °F 80% 29.71 in 10.0 mi South 4.6 mph - N/A   Partly Cloudy
9:35 AM 21.2 °F 12.6 °F 15.8 °F 80% 29.71 in 10.0 mi South 6.9 mph - N/A   Mostly Cloudy
9:55 AM 23.0 °F 12.4 °F 15.8 °F 74% 29.70 in 10.0 mi South 10.4 mph - N/A   Mostly Cloudy
10:15 AM 23.0 °F 13.9 °F 17.6 °F 80% 29.69 in 10.0 mi South 8.1 mph - N/A   Clear
10:35 AM 24.8 °F 16.9 °F 17.6 °F 74% 29.68 in 10.0 mi South 6.9 mph - N/A   Clear
10:55 AM 24.8 °F 16.1 °F 17.6 °F 74% 29.67 in 10.0 mi SSW 8.1 mph - N/A   Clear
11:15 AM 26.6 °F 17.5 °F 17.6 °F 69% 29.66 in 10.0 mi South 9.2 mph - N/A   Clear
11:35 AM 28.4 °F 19.1 °F 19.4 °F 69% 29.64 in 10.0 mi SSW 10.4 mph - N/A Rain Light Freezing Rain
11:55 AM 28.4 °F 19.1 °F 19.4 °F 69% 29.64 in 10.0 mi SSW 10.4 mph - N/A   Partly Cloudy
12:15 PM 28.4 °F 18.5 °F 19.4 °F 69% 29.62 in 10.0 mi SSW 11.5 mph - N/A   Clear
12:35 PM 28.4 °F 19.7 °F 21.2 °F 74% 29.61 in 10.0 mi South 9.2 mph - N/A   Scattered Clouds
12:55 PM 30.2 °F 21.9 °F 21.2 °F 69% 29.60 in 10.0 mi SSW 9.2 mph - N/A   Mostly Cloudy
1:15 PM 32.0 °F 23.6 °F 21.2 °F 64% 29.59 in 10.0 mi SSW 10.4 mph - N/A   Mostly Cloudy
1:35 PM 32.0 °F 24.2 °F 23.0 °F 69% 29.58 in 10.0 mi SSW 9.2 mph - N/A   Partly Cloudy
1:55 PM 32.0 °F 23.6 °F 23.0 °F 69% 29.57 in 10.0 mi South 10.4 mph - N/A   Clear
2:15 PM 32.0 °F 24.2 °F 23.0 °F 69% 29.56 in 10.0 mi South 9.2 mph - N/A   Scattered Clouds
2:35 PM 32.0 °F 23.6 °F 23.0 °F 69% 29.56 in 10.0 mi South 10.4 mph - N/A   Overcast
2:55 PM 32.0 °F 23.6 °F 23.0 °F 69% 29.56 in 10.0 mi South 10.4 mph - N/A   Overcast
3:15 PM 32.0 °F 22.5 °F 23.0 °F 69% 29.55 in 10.0 mi South 12.7 mph - N/A   Overcast
3:35 PM 32.0 °F 24.2 °F 23.0 °F 69% 29.55 in 10.0 mi South 9.2 mph - N/A   Mostly Cloudy
3:55 PM 32.0 °F 21.6 °F 24.8 °F 75% 29.54 in 10.0 mi SSW 15.0 mph - N/A   Mostly Cloudy
4:15 PM 32.0 °F 23.0 °F 23.0 °F 69% 29.55 in 10.0 mi SSW 11.5 mph - N/A   Overcast
4:35 PM 32.0 °F 22.1 °F 23.0 °F 69% 29.53 in 10.0 mi South 13.8 mph - N/A   Overcast
4:55 PM 32.0 °F 22.1 °F 24.8 °F 75% 29.52 in 10.0 mi South 13.8 mph - N/A   Overcast
5:15 PM 32.0 °F 22.5 °F 24.8 °F 75% 29.51 in 10.0 mi South 12.7 mph - N/A   Overcast
5:35 PM 32.0 °F 22.5 °F 24.8 °F 75% 29.51 in 10.0 mi South 12.7 mph - N/A   Overcast
5:55 PM 30.2 °F 20.8 °F 24.8 °F 80% 29.51 in 10.0 mi South 11.5 mph - N/A   Overcast
6:15 PM 28.4 °F 18.0 °F 23.0 °F 80% 29.50 in 10.0 mi South 12.7 mph - N/A   Overcast
6:35 PM 28.4 °F 19.1 °F 23.0 °F 80% 29.50 in 10.0 mi South 10.4 mph - N/A   Overcast
6:55 PM 28.4 °F 19.1 °F 24.8 °F 86% 29.50 in 10.0 mi SSW 10.4 mph - N/A   Overcast
7:15 PM 32.0 °F 23.6 °F 23.0 °F 69% 29.50 in 10.0 mi South 10.4 mph - N/A   Overcast
7:35 PM 32.0 °F - 24.8 °F 75% 29.51 in 10.0 mi Calm Calm - N/A   Overcast
7:55 PM 32.0 °F - 23.0 °F 69% 29.52 in 10.0 mi Calm Calm - N/A   Overcast
8:15 PM 32.0 °F - 24.8 °F 75% 29.52 in 10.0 mi Calm Calm - N/A   Overcast
8:35 PM 32.0 °F 27.5 °F 23.0 °F 69% 29.51 in 10.0 mi SW 4.6 mph - N/A   Overcast
8:55 PM 32.0 °F 25.6 °F 24.8 °F 75% 29.51 in 10.0 mi SW 6.9 mph - N/A Rain Light Rain
9:15 PM 32.0 °F 24.2 °F 24.8 °F 75% 29.51 in 10.0 mi SW 9.2 mph - N/A Rain Light Rain
9:35 PM 32.0 °F 24.2 °F 23.0 °F 69% 29.51 in 10.0 mi SW 9.2 mph - N/A   Overcast
9:55 PM 32.0 °F 24.2 °F 23.0 °F 69% 29.51 in 10.0 mi SW 9.2 mph - N/A   Overcast
10:15 PM 32.0 °F 23.0 °F 24.8 °F 75% 29.50 in 10.0 mi SSW 11.5 mph - N/A   Overcast
10:35 PM 32.0 °F 22.5 °F 24.8 °F 75% 29.50 in 10.0 mi SSW 12.7 mph - N/A   Overcast
10:55 PM 32.0 °F 23.6 °F 24.8 °F 75% 29.51 in 10.0 mi SW 10.4 mph - N/A   Overcast
11:15 PM 33.8 °F 24.3 °F 24.8 °F 70% 29.50 in 10.0 mi SW 13.8 mph - N/A   Overcast
11:35 PM 33.8 °F 24.8 °F 24.8 °F 70% 29.51 in 10.0 mi SW 12.7 mph - N/A   Overcast
11:55 PM 33.8 °F 26.4 °F 24.8 °F 70% 29.51 in 10.0 mi SW 9.2 mph - N/A   Overcast